1509177600.97,57638,8.75,72768.5,-7.39,-9.11,-9.15,0,*56
1509177602.23,57639,8.75,72766.5,-7.43,-9.15,-9.19,0,*52
1509177603.46,57640,8.75,72782.5,-7.43,-9.05,-9.05,0,*50
1509177604.66,57641,8.75,72776.5,-7.45,-8.93,-8.85,0,*50
1509177605.87,57642,8.75,72780.3,-7.45,-8.93,-8.97,0,*50
1509177607.1,57643,8.75,72788.0,-7.45,-9.11,-9.05,0,*50
1509177608.33,57644,8.75,72790.8,-7.47,-9.23,-9.27,0,*54
1509177609.54,57645,8.75,72798.0,-7.49,-9.01,-8.97,0,*51
1509177610.75,57646,8.75,72802.3,-7.49,-8.89,-8.85,0,*50
1509177611.95,57647,8.75,72806.0,-7.49,-8.85,-8.75,0,*52
1509177613.16,57648,8.75,72810.8,-7.49,-8.97,-8.89,0,*5D
1509177614.4,57649,8.75,72808.8,-7.49,-9.11,-9.01,0,*52
1509177615.61,57650,8.75,72806.0,-7.49,-9.01,-9.01,0,*5B
1509177616.82,57651,8.75,72804.3,-7.49,-8.89,-8.89,0,*5A
1509177618.03,57652,8.75,72798.8,-7.53,-8.93,-9.01,0,*58
1509177619.23,57653,8.75,72790.8,-7.53,-9.19,-9.19,0,*53
1509177620.43,57654,8.75,72780.5,-7.53,-9.31,-9.27,0,*53
1509177621.63,57655,8.75,72782.3,-7.53,-9.19,-9.19,0,*55
1509177622.86,57656,8.75,72778.8,-7.55,-9.19,-9.19,0,*50
1509177624.08,57657,8.75,72766.0,-7.55,-9.27,-9.27,0,*51
1509177625.37,57658,8.75,72770.3,-7.55,-9.15,-9.15,0,*5E
1509177626.6,57659,8.75,72760.5,-7.55,-9.01,-9.05,0,*5B
1509177627.85,57660,8.75,72750.5,-7.57,-9.05,-9.11,0,*52
1509177629.07,57661,8.75,72742.0,-7.57,-9.19,-9.23,0,*5F
1509177630.29,57662,8.75,72690.8,-7.57,-9.67,-9.67,0,*55
1509177631.52,57663,8.75,72690.8,-7.59,-9.61,-9.67,0,*5C
1509177632.73,57664,8.75,72730.0,-7.61,-9.97,-10.05,0,*65
1509177633.96,57665,8.75,72716.0,-7.65,-9.79,-9.79,0,*53
1509177635.18,57666,8.75,72706.8,-7.65,-9.67,-9.71,0,*57
1509177636.45,57667,8.75,72696.3,-7.65,-9.41,-9.41,0,*51
1509177637.65,57668,8.75,72680.0,-7.67,-9.27,-9.27,0,*5C
1509177638.85,57669,8.75,72666.3,-7.67,-9.19,-9.19,0,*5D
1509177640.04,57670,8.75,72666.0,-7.67,-9.31,-9.31,0,*55
1509177641.3,57671,8.75,72724.0,-7.67,-9.41,-9.41,0,*54
1509177642.49,57672,8.75,72750.3,-7.67,-9.31,-9.31,0,*57
1509177643.68,57673,8.75,72724.0,-7.67,-9.31,-9.31,0,*56
1509177644.89,57674,8.75,72744.5,-7.67,-9.05,-9.05,0,*51
1509177646.16,57675,8.75,72752.8,-7.69,-9.15,-9.15,0,*5E
1509177647.39,57676,8.75,72774.5,-7.69,-9.19,-9.27,0,*50
1509177648.67,57677,8.75,72748.3,-7.69,-9.15,-9.15,0,*5C
1509177649.88,57678,8.75,72664.5,-7.69,-9.31,-9.31,0,*53
1509177651.1,57679,8.81,72662.0,-7.69,-9.31,-9.31,0,*52
1509177652.33,57680,8.75,72678.0,-7.71,-9.11,-9.23,0,*5C
1509177653.55,57681,8.75,72662.5,-7.71,-9.11,-9.05,0,*59
1509177654.78,57682,8.75,72738.3,-7.71,-9.19,-9.11,0,*57
1509177655.97,57683,8.75,72710.8,-7.71,-9.19,-9.19,0,*5E
1509177657.2,57684,8.75,72712.8,-7.71,-9.11,-9.19,0,*51
1509177658.45,57685,8.75,72668.5,-7.69,-9.15,-9.19,0,*5D
1509177659.68,57686,8.75,72676.5,-7.71,-9.01,-9.15,0,*5E
1509177660.87,57687,8.75,72678.5,-7.71,-9.31,-9.31,0,*5A
1509177662.09,57688,8.75,72674.5,-7.73,-9.31,-9.23,0,*54
1509177663.31,57689,8.75,72694.5,-7.73,-9.23,-9.19,0,*5F
1509177664.56,57690,8.75,72684.3,-7.73,-8.85,-8.81,0,*5A
1509177665.78,57691,8.75,72694.0,-7.73,-8.59,-8.59,0,*5F
1509177666.99,57692,8.75,72688.8,-7.73,-8.59,-8.59,0,*5C
1509177668.27,57693,8.75,72686.3,-7.73,-8.51,-8.51,0,*5D
1509177669.49,57694,8.75,72698.5,-7.71,-8.51,-8.41,0,*59
1509177670.71,57695,8.75,72688.5,-7.69,-8.37,-8.33,0,*54
1509177671.9,57696,8.75,72700.5,-7.71,-8.41,-8.41,0,*5A
1509177673.13,57697,8.75,72710.5,-7.69,-8.37,-8.37,0,*52
1509177674.36,57698,8.75,72720.5,-7.69,-8.37,-8.37,0,*5D
1509177675.58,57699,8.75,72740.3,-7.69,-8.33,-8.45,0,*5D
1509177676.78,57700,8.75,72748.5,-7.71,-8.37,-8.37,0,*54
1509177677.99,57701,8.75,72758.0,-7.69,-8.33,-8.33,0,*5C
1509177679.21,57702,8.75,72760.3,-7.69,-8.37,-8.33,0,*5B
1509177680.42,57703,8.75,72768.0,-7.69,-8.33,-8.33,0,*5E
1509177681.63,57704,8.75,72768.3,-7.69,-8.33,-8.25,0,*5E
1509177682.83,57705,8.75,72774.3,-7.67,-8.37,-8.25,0,*55
1509177684.02,57706,8.75,72780.0,-7.67,-8.33,-8.25,0,*52
1509177685.21,57707,8.75,72782.5,-7.67,-8.33,-8.25,0,*53
1509177686.41,57708,8.75,72790.8,-7.67,-8.33,-8.37,0,*5F
1509177687.61,57709,8.75,72790.8,-7.67,-8.37,-8.37,0,*5A
1509177688.8,57710,8.75,72794.5,-7.67,-8.33,-8.33,0,*52
1509177689.99,57711,8.75,72796.5,-7.67,-8.33,-8.29,0,*58
1509177691.2,57712,8.75,72796.3,-7.67,-8.37,-8.37,0,*50
1509177692.41,57713,8.75,72800.8,-7.65,-8.33,-8.41,0,*56
1509177693.62,57714,8.75,72806.3,-7.67,-8.37,-8.37,0,*56
1509177694.81,57715,8.75,72810.0,-7.67,-8.37,-8.33,0,*53
1509177696.0,57716,8.75,72812.5,-7.67,-8.33,-8.33,0,*54
1509177697.22,57717,8.75,72808.3,-7.65,-8.29,-8.21,0,*5F
1509177698.42,57718,8.75,72810.5,-7.67,-8.33,-8.37,0,*5E
1509177699.63,57719,8.75,72814.5,-7.65,-8.29,-8.29,0,*59
1509177700.85,57720,8.75,72812.3,-7.65,-8.21,-8.17,0,*56
1509177702.07,57721,8.75,72808.8,-7.65,-8.21,-8.21,0,*52
1509177703.27,57722,8.75,72800.8,-7.65,-8.33,-8.33,0,*51
1509177704.49,57723,8.75,72804.0,-7.65,-8.45,-8.45,0,*50
1509177705.77,57724,8.75,72804.0,-7.65,-8.51,-8.51,0,*57
1509177706.98,57725,8.75,72800.0,-7.65,-8.41,-8.33,0,*53
1509177708.2,57726,8.75,72800.5,-7.65,-8.29,-8.29,0,*55
1509177709.41,57727,8.75,72798.0,-7.65,-8.29,-8.21,0,*5C
1509177710.64,57728,8.75,72792.3,-7.65,-8.17,-8.21,0,*5E
1509177711.85,57729,8.75,72794.0,-7.65,-8.21,-8.21,0,*5A
1509177713.07,57730,8.75,72790.5,-7.61,-8.21,-8.21,0,*56
1509177714.29,57731,8.75,72788.5,-7.61,-8.21,-8.21,0,*57
1509177715.51,57732,8.75,72794.8,-7.61,-8.21,-8.21,0,*54
1509177716.73,57733,8.75,72788.0,-7.61,-8.29,-8.21,0,*5D
1509177717.94,57734,8.75,72778.3,-7.61,-8.21,-8.21,0,*52
1509177719.15,57735,8.75,72764.3,-7.61,-8.33,-8.33,0,*53
1509177720.37,57736,8.75,72762.0,-7.61,-8.41,-8.41,0,*50
1509177721.61,57737,8.75,72748.3,-7.61,-8.51,-8.41,0,*50
1509177722.88,57738,8.75,72744.0,-7.61,-8.51,-8.51,0,*5E
1509177724.15,57739,8.75,72724.3,-7.61,-8.51,-8.51,0,*5F
1509177725.38,57740,8.75,72728.3,-7.65,-8.45,-8.45,0,*55
1509177726.6,57741,8.75,72728.0,-7.65,-8.45,-8.45,0,*54
1509177727.84,57742,8.75,72732.0,-7.65,-8.45,-8.51,0,*52
1509177729.11,57743,8.75,72730.0,-7.61,-8.51,-8.51,0,*52
1509177730.33,57744,8.75,72736.8,-7.65,-8.41,-8.41,0,*51
1509177731.55,57745,8.75,72742.3,-7.65,-8.41,-8.41,0,*50
1509177732.76,57746,8.75,72750.3,-7.65,-8.33,-8.33,0,*53
1509177733.98,57747,8.75,72752.5,-7.65,-8.29,-8.21,0,*5A
1509177735.19,57748,8.75,72756.8,-7.65,-8.29,-8.29,0,*5D
1509177736.39,57749,8.75,72756.0,-7.67,-8.17,-8.17,0,*5E
1509177737.61,57750,8.75,72762.0,-7.65,-8.17,-8.17,0,*54
1509177738.83,57751,8.75,72762.5,-7.65,-8.17,-8.17,0,*55
1509177740.05,57752,8.75,72764.5,-7.65,-8.17,-8.17,0,*56
1509177741.29,57753,8.75,72766.8,-7.61,-8.07,-8.17,0,*52
1509177742.56,57754,8.75,72768.0,-7.61,-8.07,-8.03,0,*50
1509177743.83,57755,8.75,72770.3,-7.61,-8.03,-8.07,0,*51
1509177745.07,57756,8.75,72774.5,-7.59,-8.03,-7.99,0,*51
1509177746.33,57757,8.75,72778.3,-7.61,-8.03,-8.03,0,*57
1509177747.58,57758,8.75,72780.5,-7.59,-7.99,-7.91,0,*5B
1509177748.84,57759,8.75,72792.5,-7.61,-7.91,-7.95,0,*5D
1509177750.07,57760,8.75,72792.8,-7.59,-7.91,-7.87,0,*5F
1509177751.31,57761,8.75,72798.8,-7.59,-8.03,-7.99,0,*55
1509177752.59,57762,8.75,72800.8,-7.61,-8.07,-8.07,0,*51
1509177753.83,57763,8.75,72804.3,-7.59,-8.03,-7.99,0,*57
1509177755.07,57764,8.75,72810.5,-7.59,-8.03,-8.03,0,*5C
1509177756.32,57765,8.75,72810.0,-7.59,-8.03,-7.99,0,*51
1509177757.56,57766,8.75,72804.0,-7.59,-7.99,-7.99,0,*5E
1509177758.79,57767,8.75,72812.3,-7.59,-7.99,-7.87,0,*50
1509177760.04,57768,8.75,72810.0,-7.59,-7.99,-7.91,0,*58
1509177761.26,57769,8.75,72812.8,-7.59,-7.99,-7.87,0,*5E
1509177762.49,57770,8.75,72814.0,-7.59,-7.91,-7.87,0,*5E
1509177763.73,57771,8.75,72814.8,-7.57,-7.91,-7.87,0,*51
1509177764.99,57772,8.75,72816.0,-7.55,-7.95,-7.83,0,*50
1509177766.26,57773,8.75,72816.0,-7.57,-7.99,-7.99,0,*54
1509177767.53,57774,8.75,72808.3,-7.57,-7.99,-7.91,0,*5B
1509177768.8,57775,8.75,72802.8,-7.57,-7.99,-7.91,0,*5A
1509177770.07,57776,8.75,72798.5,-7.57,-7.91,-7.91,0,*51
1509177771.34,57777,8.75,72794.8,-7.57,-7.91,-7.91,0,*50
1509177772.57,57778,8.75,72796.5,-7.55,-7.87,-7.87,0,*5D
1509177773.79,57779,8.75,72802.8,-7.55,-7.87,-7.87,0,*5C
1509177775.07,57780,8.75,72810.3,-7.57,-7.99,-7.91,0,*50
1509177776.33,57781,8.75,72792.0,-7.57,-8.03,-8.03,0,*59
1509177777.61,57782,8.75,72784.5,-7.55,-8.11,-8.11,0,*58
1509177778.88,57783,8.75,72774.3,-7.55,-8.11,-8.03,0,*5A
1509177780.15,57784,8.75,72774.3,-7.57,-8.03,-8.03,0,*5C
1509177781.42,57785,8.75,72774.3,-7.55,-7.99,-7.95,0,*53
1509177782.69,57786,8.75,72772.3,-7.55,-7.99,-7.99,0,*5C
1509177783.92,57787,8.75,72766.5,-7.55,-8.21,-8.25,0,*59
1509177785.14,57788,8.75,72776.0,-7.55,-8.25,-8.33,0,*55
1509177786.35,57789,8.75,72784.8,-7.57,-8.29,-8.29,0,*51
1509177787.57,57790,8.75,72788.5,-7.55,-8.33,-8.33,0,*5B
1509177788.79,57791,8.75,72788.3,-7.57,-8.41,-8.41,0,*58
1509177790.02,57792,8.75,72778.0,-7.55,-8.37,-8.37,0,*59
1509177791.25,57793,8.75,72770.0,-7.55,-8.41,-8.41,0,*58
1509177792.46,57794,8.75,72782.3,-7.57,-8.59,-8.59,0,*5D
1509177793.68,57795,8.75,72774.0,-7.57,-8.67,-8.67,0,*5C
1509177794.9,57796,8.75,72776.3,-7.57,-8.71,-8.71,0,*5F
1509177796.14,57797,8.75,72770.3,-7.59,-8.81,-8.81,0,*50
1509177797.37,57798,8.75,72758.5,-7.59,-8.81,-8.85,0,*5B
1509177798.61,57799,8.75,72760.3,-7.59,-8.81,-8.81,0,*5E
1509177799.82,57800,8.75,72754.5,-7.59,-8.81,-8.71,0,*5E
1509177801.02,57801,8.75,72750.0,-7.59,-8.85,-8.75,0,*5F
1509177802.24,57802,8.75,72742.5,-7.59,-8.81,-8.71,0,*5C
1509177803.47,57803,8.75,72760.0,-7.61,-8.89,-8.85,0,*55
1509177804.69,57804,8.75,72770.5,-7.61,-8.71,-8.75,0,*5A
1509177805.93,57805,8.75,72770.3,-7.61,-8.63,-8.51,0,*5E
1509177807.15,57806,8.75,72774.5,-7.61,-8.59,-8.63,0,*55
1509177808.36,57807,8.75,72760.3,-7.65,-8.63,-8.63,0,*59
1509177809.58,57808,8.75,72740.0,-7.65,-8.63,-8.71,0,*55
1509177810.8,57809,8.75,72736.3,-7.67,-8.51,-8.55,0,*51
1509177812.02,57810,8.75,72740.5,-7.65,-8.33,-8.45,0,*5E
1509177813.24,57811,8.75,72752.3,-7.65,-8.41,-8.45,0,*5A
1509177814.46,57812,8.75,72744.0,-7.65,-8.45,-8.41,0,*59
1509177815.67,57813,8.75,72736.8,-7.65,-8.33,-8.41,0,*59
1509177816.88,57814,8.75,72732.5,-7.65,-8.29,-8.29,0,*5B
1509177818.11,57815,8.75,72740.8,-7.65,-8.17,-8.21,0,*5F
1509177819.32,57816,8.75,72750.5,-7.65,-8.17,-8.17,0,*59
1509177820.54,57817,8.75,72778.5,-7.65,-8.21,-8.21,0,*58
1509177821.76,57818,8.75,72790.3,-7.65,-8.21,-8.17,0,*52
1509177822.98,57819,8.75,72790.8,-7.65,-8.21,-8.21,0,*56
1509177824.2,57820,8.75,72786.8,-7.65,-8.45,-8.45,0,*5C
1509177825.41,57821,8.75,72786.0,-7.65,-8.59,-8.59,0,*5D
1509177826.63,57822,8.75,72796.3,-7.65,-8.59,-8.59,0,*5E
1509177827.9,57823,8.75,72790.8,-7.65,-8.51,-8.51,0,*5F
1509177829.14,57824,8.75,72780.8,-7.65,-8.51,-8.59,0,*50
1509177830.34,57825,8.75,72792.8,-7.67,-8.55,-8.55,0,*5B
1509177831.61,57826,8.75,72792.8,-7.65,-8.51,-8.51,0,*5A
1509177832.85,57827,8.75,72792.0,-7.65,-8.51,-8.59,0,*53
1509177834.07,57828,8.75,72798.8,-7.65,-8.71,-8.71,0,*54
1509177835.26,57829,8.75,72790.3,-7.67,-8.67,-8.67,0,*57
1509177836.47,57830,8.75,72794.3,-7.65,-8.59,-8.63,0,*54
1509177837.68,57831,8.75,72790.0,-7.67,-8.89,-8.89,0,*5E
1509177838.9,57832,8.75,72760.5,-7.65,-8.63,-8.71,0,*5C
1509177840.1,57833,8.75,72758.8,-7.67,-9.05,-9.05,0,*5C
1509177841.3,57834,8.75,72752.8,-7.67,-9.27,-9.27,0,*5B
1509177842.53,57835,8.75,72758.5,-7.69,-8.93,-8.93,0,*54
1509177843.73,57836,8.75,72748.5,-7.71,-9.05,-9.05,0,*5E
1509177844.93,57837,8.75,72740.8,-7.71,-9.05,-9.05,0,*5F
1509177846.14,57838,8.75,72726.0,-7.71,-8.85,-8.85,0,*50
1509177847.36,57839,8.75,72730.3,-7.69,-8.63,-8.55,0,*5D
1509177848.54,57840,8.69,72714.0,-7.71,-8.59,-8.55,0,*53
1509177849.79,57841,8.75,72716.5,-7.71,-8.51,-8.51,0,*5E
1509177851.04,57842,8.75,72708.5,-7.71,-8.51,-8.51,0,*5D
1509177852.26,57843,8.69,72686.8,-7.71,-8.55,-8.51,0,*58
1509177853.49,57844,8.75,72690.0,-7.69,-8.45,-8.45,0,*52
1509177854.68,57845,8.75,72692.5,-7.71,-8.55,-8.41,0,*5F
1509177855.88,57846,8.75,72702.8,-7.71,-8.37,-8.37,0,*59
1509177857.07,57847,8.69,72712.8,-7.71,-8.33,-8.33,0,*58
1509177858.3,57848,8.75,72730.8,-7.69,-8.41,-8.37,0,*5F
1509177859.52,57849,8.75,72742.5,-7.69,-8.33,-8.37,0,*5B
1509177860.74,57850,8.75,72744.3,-7.69,-8.25,-8.21,0,*53
1509177861.96,57851,8.75,72752.5,-7.69,-8.21,-8.21,0,*56
1509177863.18,57852,8.75,72752.8,-7.69,-8.21,-8.21,0,*55
1509177864.4,57853,8.75,72758.3,-7.69,-8.25,-8.25,0,*54
1509177865.6,57854,8.75,72786.8,-7.71,-8.25,-8.25,0,*5A
1509177866.79,57855,8.75,72800.5,-7.67,-8.33,-8.25,0,*5B
1509177868.01,57856,8.75,72806.0,-7.69,-8.37,-8.33,0,*55
1509177869.21,57857,8.75,72796.5,-7.71,-8.37,-8.37,0,*59
1509177870.42,57858,8.75,72782.5,-7.69,-8.33,-8.33,0,*5F
1509177871.62,57859,8.75,72778.8,-7.67,-8.21,-8.21,0,*50
1509177872.88,57860,8.75,72762.8,-7.67,-8.07,-8.07,0,*5A
1509177874.13,57861,8.75,72754.0,-7.67,-8.07,-7.99,0,*53
1509177875.38,57862,8.75,72752.8,-7.67,-8.07,-7.99,0,*50
1509177876.64,57863,8.75,72742.5,-7.67,-8.07,-8.07,0,*59
1509177877.89,57864,8.75,72714.8,-7.67,-8.07,-8.11,0,*59
1509177879.15,57865,8.75,72714.0,-7.65,-8.03,-8.03,0,*5D
1509177880.4,57866,8.75,72714.0,-7.67,-8.11,-8.11,0,*5C
1509177881.66,57867,8.75,72716.5,-7.65,-8.17,-8.07,0,*5E
1509177882.87,57868,8.75,72720.8,-7.65,-8.21,-8.17,0,*55
1509177884.12,57869,8.75,72744.5,-7.65,-8.17,-8.07,0,*50
1509177885.4,57870,8.69,72748.5,-7.65,-8.07,-8.07,0,*59
1509177886.67,57871,8.75,72752.0,-7.65,-8.07,-8.03,0,*5C
1509177887.95,57872,8.75,72758.3,-7.65,-8.07,-8.07,0,*5B
1509177889.21,57873,8.75,72768.3,-7.65,-8.03,-8.03,0,*5A
1509177890.48,57874,8.75,72772.8,-7.65,-8.07,-8.03,0,*59
1509177891.74,57875,8.75,72786.3,-7.65,-8.03,-7.95,0,*5C
1509177893.0,57876,8.75,72788.3,-7.65,-8.17,-8.07,0,*5E
1509177894.21,57877,8.75,72788.3,-7.65,-8.17,-8.17,0,*5E
1509177895.43,57878,8.75,72796.8,-7.65,-8.17,-8.21,0,*54
1509177896.65,57879,8.75,72788.8,-7.65,-8.17,-8.17,0,*50
1509177897.93,57880,8.75,72770.0,-7.61,-8.07,-8.07,0,*52
1509177899.15,57881,8.69,72764.5,-7.61,-8.17,-8.17,0,*53
1509177900.37,57882,8.75,72758.5,-7.65,-8.17,-8.17,0,*54
1509177901.65,57883,8.75,72758.5,-7.65,-8.07,-8.07,0,*55
1509177902.87,57884,8.75,72752.8,-7.61,-8.17,-8.21,0,*53
1509177904.06,57885,8.75,72754.0,-7.59,-8.29,-8.33,0,*57
1509177905.28,57886,8.75,72740.5,-7.61,-8.17,-8.21,0,*51
1509177906.5,57887,8.75,72746.0,-7.61,-8.21,-8.21,0,*55
1509177907.71,57888,8.75,72778.5,-7.61,-8.21,-8.17,0,*5F
1509177908.94,57889,8.75,72842.0,-7.59,-8.17,-8.11,0,*56
1509177910.18,57890,8.75,72806.0,-7.61,-8.45,-8.51,0,*56
1509177911.39,57891,8.75,72742.5,-7.61,-8.59,-8.63,0,*5B
1509177912.61,57892,8.75,72750.3,-7.61,-8.41,-8.45,0,*55
1509177913.83,57893,8.75,72756.0,-7.65,-8.21,-8.29,0,*5C
1509177915.1,57894,8.75,72752.0,-7.61,-8.51,-8.51,0,*57
1509177916.35,57895,8.75,72760.3,-7.65,-8.51,-8.41,0,*53
1509177917.59,57896,8.75,72760.8,-7.65,-8.45,-8.51,0,*54
1509177918.82,57897,8.75,72758.8,-7.65,-8.85,-8.89,0,*5C
1509177920.1,57898,8.69,72770.0,-7.65,-9.41,-9.37,0,*5E
1509177921.29,57899,8.75,72782.8,-7.67,-9.27,-9.31,0,*5B
1509177922.52,57900,8.75,72776.8,-7.67,-9.27,-9.41,0,*5D
1509177923.73,57901,8.69,72774.0,-7.69,-9.31,-9.31,0,*52
1509177924.96,57902,8.75,72770.5,-7.69,-9.27,-9.27,0,*51
1509177926.15,57903,8.75,72772.5,-7.71,-8.97,-9.05,0,*53
1509177927.38,57904,8.75,72768.0,-7.71,-9.05,-9.11,0,*5B
1509177928.57,57905,8.75,72766.8,-7.71,-9.19,-9.31,0,*55
1509177929.8,57906,8.75,72762.3,-7.69,-9.05,-9.19,0,*58
1509177930.99,57907,8.75,72764.0,-7.71,-9.23,-9.23,0,*5D
1509177932.25,57908,8.75,72770.3,-7.73,-8.81,-8.81,0,*50
1509177933.5,57909,8.75,72768.0,-7.73,-8.55,-8.51,0,*55
1509177934.72,57910,8.75,72786.3,-7.73,-8.29,-8.25,0,*55
1509177935.95,57911,8.75,72782.8,-7.73,-8.29,-8.37,0,*57
1509177937.17,57912,8.69,72790.5,-7.73,-8.41,-8.41,0,*5B
1509177938.44,57913,8.69,72778.5,-7.73,-8.51,-8.51,0,*5A
1509177939.66,57914,8.75,72780.5,-7.73,-8.55,-8.55,0,*5D
1509177940.86,57915,8.75,72778.8,-7.71,-8.93,-8.93,0,*5E
1509177942.09,57916,8.75,72766.8,-7.71,-9.05,-9.11,0,*58
1509177943.29,57917,8.75,72760.5,-7.75,-9.23,-9.23,0,*58
1509177944.49,57918,8.69,72760.3,-7.75,-8.97,-8.89,0,*58
1509177945.71,57919,8.75,72766.8,-7.73,-8.71,-8.67,0,*57
1509177946.93,57920,8.75,72786.3,-7.73,-8.97,-9.05,0,*50
1509177948.16,57921,8.75,72764.3,-7.73,-8.97,-9.05,0,*51
1509177949.38,57922,8.75,72770.3,-7.73,-9.23,-9.23,0,*58
1509177950.6,57923,8.75,72770.8,-7.75,-9.31,-9.37,0,*59
1509177951.83,57924,8.75,72782.8,-7.75,-9.37,-9.27,0,*59
1509177953.07,57925,8.69,72772.0,-7.77,-9.01,-9.01,0,*5B
1509177954.29,57926,8.75,72774.3,-7.79,-9.31,-9.41,0,*51
1509177955.57,57927,8.69,72782.8,-7.77,-9.37,-9.41,0,*58
1509177956.81,57928,8.75,72788.0,-7.79,-9.53,-9.57,0,*5C
1509177958.06,57929,8.75,72782.8,-7.79,-9.45,-9.45,0,*59
1509177959.34,57930,8.75,72768.3,-7.81,-9.45,-9.45,0,*56
1509177960.59,57931,8.75,72758.8,-7.83,-9.49,-9.49,0,*55
1509177961.87,57932,8.75,72752.8,-7.81,-9.45,-9.45,0,*54
1509177963.09,57933,8.75,72762.5,-7.81,-9.19,-9.31,0,*5F
1509177964.35,57934,8.75,72758.3,-7.83,-9.45,-9.49,0,*5C
1509177965.6,57935,8.75,72748.0,-7.83,-9.49,-9.49,0,*51
1509177966.83,57936,8.75,72756.3,-7.81,-9.05,-9.05,0,*50
1509177968.04,57937,8.75,72774.0,-7.83,-8.97,-8.97,0,*53
1509177969.26,57938,8.75,72794.3,-7.85,-8.97,-8.85,0,*59
1509177970.52,57939,8.75,72796.8,-7.81,-9.05,-9.15,0,*5E
1509177971.74,57940,8.75,72780.5,-7.85,-9.23,-9.31,0,*56
1509177972.96,57941,8.69,72772.8,-7.85,-9.23,-9.31,0,*57
1509177974.18,57942,8.75,72766.5,-7.85,-9.23,-9.23,0,*57
1509177975.41,57943,8.69,72742.8,-7.85,-9.31,-9.31,0,*56
1509177976.66,57944,8.75,72744.3,-7.89,-9.37,-9.41,0,*5C
1509177977.91,57945,8.75,72756.5,-7.89,-9.37,-9.37,0,*5C
1509177979.16,57946,8.75,72748.0,-7.85,-8.81,-8.85,0,*57
1509177980.39,57947,8.75,72742.8,-7.85,-8.97,-9.05,0,*58
1509177981.61,57948,8.75,72728.5,-7.85,-9.31,-9.31,0,*5D
1509177982.8,57949,8.69,72712.5,-7.89,-9.27,-9.23,0,*54
1509177984.06,57950,8.75,72708.3,-7.89,-9.37,-9.41,0,*59
1509177985.28,57951,8.75,72696.0,-7.89,-9.37,-9.23,0,*5C
1509177986.51,57952,8.75,72668.0,-7.89,-9.27,-9.37,0,*5B
1509177987.75,57953,8.75,72672.8,-7.89,-9.53,-9.61,0,*5A
1509177989.01,57954,8.75,72724.3,-7.89,-9.15,-9.11,0,*58
1509177990.23,57955,8.75,72664.8,-7.93,-9.15,-9.19,0,*5A
1509177991.5,57956,8.75,72678.5,-7.91,-9.49,-9.41,0,*5F
1509177992.7,57957,8.75,72694.5,-7.93,-9.19,-9.27,0,*59
1509177993.9,57958,8.75,72720.8,-7.93,-9.05,-9.05,0,*5B
1509177995.13,57959,8.75,72736.0,-7.91,-9.01,-9.01,0,*58
1509177996.39,57960,8.75,72726.8,-7.91,-9.01,-9.11,0,*53
1509177997.61,57961,8.75,72732.8,-7.91,-9.23,-9.23,0,*53
1509177998.85,57962,8.75,72730.8,-7.91,-8.89,-8.89,0,*50
1509178000.07,57963,8.75,72746.8,-7.91,-8.75,-8.75,0,*51
1509178001.27,57964,8.75,72744.5,-7.93,-9.01,-9.01,0,*54
1509178002.49,57965,8.75,72744.0,-7.91,-9.23,-9.23,0,*57
1509178003.77,57966,8.75,72736.3,-7.91,-9.41,-9.49,0,*5C
1509178005.05,57967,8.69,72714.3,-7.91,-9.41,-9.53,0,*56
1509178006.25,57968,8.69,72718.3,-7.93,-9.67,-9.67,0,*58
1509178007.48,57969,8.75,72706.0,-7.93,-9.57,-9.57,0,*59
1509178008.72,57970,8.75,72710.3,-7.93,-9.53,-9.45,0,*56
1509178009.97,57971,8.75,72726.5,-7.95,-9.27,-9.41,0,*56
1509178011.19,57972,8.75,72736.8,-7.95,-9.27,-9.27,0,*55
1509178012.47,57973,8.75,72742.3,-7.95,-9.41,-9.45,0,*50
1509178013.66,57974,8.75,72744.8,-7.97,-9.31,-9.23,0,*52
1509178014.92,57975,8.75,72738.5,-7.97,-9.11,-9.11,0,*50
1509178016.12,57976,8.75,72740.3,-7.97,-8.97,-8.97,0,*53
1509178017.33,57977,8.75,72736.8,-7.97,-8.85,-8.85,0,*52
1509178018.53,57978,8.75,72742.5,-7.97,-8.85,-8.85,0,*5D
1509178019.76,57979,8.75,72744.5,-7.97,-8.81,-8.85,0,*58
1509178020.97,57980,8.75,72746.3,-7.95,-8.75,-8.63,0,*5F
1509178022.2,57981,8.75,72748.5,-7.95,-8.71,-8.63,0,*5A
1509178023.38,57982,8.75,72750.8,-7.93,-8.59,-8.59,0,*5C
1509178024.57,57983,8.75,72748.8,-7.93,-8.59,-8.59,0,*5D
1509178025.76,57984,8.75,72742.5,-7.93,-8.59,-8.59,0,*5A
1509178026.97,57985,8.75,72740.5,-7.93,-8.81,-8.75,0,*50
1509178028.21,57986,8.75,72730.5,-7.93,-8.81,-8.81,0,*58
1509178029.43,57987,8.75,72736.0,-7.91,-8.71,-8.67,0,*5C
1509178030.63,57988,8.75,72750.0,-7.93,-8.45,-8.37,0,*53
1509178031.83,57989,8.75,72762.3,-7.93,-8.45,-8.37,0,*52
1509178033.04,57990,8.69,72756.0,-7.91,-8.33,-8.29,0,*56
1509178034.25,57991,8.75,72756.3,-7.93,-8.37,-8.37,0,*5E
1509178035.47,57992,8.75,72762.8,-7.91,-8.41,-8.33,0,*5A
1509178036.69,57993,8.75,72760.3,-7.91,-8.45,-8.45,0,*5E
1509178037.92,57994,8.75,72760.3,-7.91,-8.45,-8.41,0,*5D
1509178039.13,57995,8.75,72760.0,-7.91,-8.33,-8.33,0,*58
1509178040.35,57996,8.75,72760.8,-7.91,-8.33,-8.41,0,*5E
1509178041.56,57997,8.75,72766.5,-7.91,-8.33,-8.33,0,*5A
1509178042.74,57998,8.75,72764.3,-7.89,-8.33,-8.33,0,*5C
1509178043.94,57999,8.75,72766.3,-7.89,-8.41,-8.41,0,*5D
1509178045.14,58000,8.75,72776.5,-7.89,-8.45,-8.45,0,*5B
1509178046.33,58001,8.75,72770.0,-7.89,-8.59,-8.55,0,*56
1509178047.53,58002,8.75,72768.8,-7.89,-8.55,-8.45,0,*58
1509178048.73,58003,8.75,72772.0,-7.89,-8.45,-8.45,0,*58
1509178049.95,58004,8.75,72768.3,-7.85,-8.25,-8.25,0,*53
1509178051.15,58005,8.75,72768.3,-7.89,-8.29,-8.29,0,*5E
1509178052.37,58006,8.75,72770.8,-7.85,-8.17,-8.17,0,*51
1509178053.59,58007,8.75,72764.5,-7.85,-8.29,-8.29,0,*50
1509178054.84,58008,8.75,72768.8,-7.85,-8.41,-8.51,0,*5E
1509178056.07,58009,8.75,72768.8,-7.85,-8.37,-8.37,0,*5E
1509178057.31,58010,8.75,72764.8,-7.85,-8.37,-8.37,0,*56
1509178058.52,58011,8.75,72774.5,-7.85,-8.29,-8.33,0,*5C
1509178059.78,58012,8.75,72778.3,-7.85,-8.17,-8.11,0,*52
1509178061.03,58013,8.75,72782.3,-7.85,-8.17,-8.11,0,*53
1509178062.28,58014,8.75,72788.0,-7.85,-8.17,-8.11,0,*54
1509178063.5,58015,8.75,72808.5,-7.85,-8.29,-8.29,0,*53
1509178064.73,58016,8.75,72812.0,-7.83,-8.51,-8.41,0,*57
1509178065.96,58017,8.75,72814.0,-7.85,-8.37,-8.37,0,*51
1509178067.16,58018,8.69,72802.0,-7.83,-8.29,-8.29,0,*58
1509178068.37,58019,8.75,72796.5,-7.83,-8.55,-8.63,0,*5C
1509178069.58,58020,8.75,72816.5,-7.81,-8.67,-8.67,0,*51
1509178070.8,58021,8.75,72820.3,-7.83,-8.85,-8.85,0,*52
1509178072.01,58022,8.75,72820.3,-7.83,-8.93,-8.97,0,*55
1509178073.22,58023,8.75,72814.5,-7.83,-8.85,-8.93,0,*57
1509178074.46,58024,8.75,72810.5,-7.85,-8.85,-8.85,0,*51
1509178075.66,58025,8.75,72800.5,-7.89,-8.85,-8.75,0,*53
1509178076.91,58026,8.75,72788.5,-7.85,-9.05,-9.11,0,*56
1509178078.16,58027,8.75,72784.0,-7.89,-9.49,-9.49,0,*5E
1509178079.39,58028,8.75,72782.0,-7.85,-9.23,-9.27,0,*59
1509178080.61,58029,8.75,72782.3,-7.89,-9.27,-9.37,0,*51
1509178081.81,58030,8.75,72758.5,-7.89,-9.67,-9.71,0,*5F
1509178083.01,58031,8.75,72750.5,-7.89,-9.67,-9.67,0,*59
1509178084.21,58032,8.75,72744.5,-7.93,-9.71,-9.71,0,*51
1509178085.45,58033,8.75,72728.5,-7.93,-9.49,-9.49,0,*50
1509178086.72,58034,8.75,72736.8,-7.95,-9.53,-9.53,0,*51
1509178087.99,58035,8.75,72748.8,-7.95,-9.45,-9.57,0,*53
1509178089.22,58036,8.75,72752.5,-7.95,-9.71,-9.75,0,*57
1509178090.41,58037,8.75,72748.8,-7.97,-9.79,-9.89,0,*5F
1509178091.63,58038,8.75,72754.3,-7.97,-10.01,-10.01,0,*5F
1509178092.84,58039,8.75,72752.0,-7.97,-10.01,-10.01,0,*5E
1509178094.06,58040,8.75,72750.3,-8.01,-9.93,-9.83,0,*51
1509178095.28,58041,8.75,72738.0,-8.01,-9.79,-9.83,0,*54
1509178096.49,58042,8.75,72728.3,-8.01,-9.75,-9.75,0,*52
1509178097.69,58043,8.75,72742.0,-8.01,-9.67,-9.67,0,*53
1509178098.94,58044,8.75,72736.5,-8.01,-9.49,-9.53,0,*5F
1509178100.2,58045,8.75,72730.0,-8.03,-9.57,-9.57,0,*57
1509178101.48,58046,8.75,72722.0,-8.03,-9.53,-9.53,0,*54
1509178102.71,58047,8.75,72710.5,-8.05,-9.57,-9.57,0,*53
1509178103.96,58048,8.75,72692.8,-8.05,-9.45,-9.57,0,*5F
1509178105.2,58049,8.75,72702.0,-8.05,-9.53,-9.57,0,*59
1509178106.42,58050,8.75,72694.8,-8.05,-9.57,-9.67,0,*56
1509178107.65,58051,8.75,72632.0,-8.05,-9.57,-9.57,0,*54
1509178108.85,58052,8.75,72638.8,-8.05,-9.31,-9.27,0,*50
1509178110.05,58053,8.75,72636.8,-8.05,-9.19,-9.19,0,*56
1509178111.25,58054,8.75,72638.0,-8.05,-9.19,-9.27,0,*5C
1509178112.53,58055,8.75,72668.0,-8.03,-9.15,-9.15,0,*56
1509178113.75,58056,8.75,72680.3,-8.05,-9.05,-9.15,0,*52
1509178114.98,58057,8.75,72690.0,-8.03,-9.19,-9.27,0,*59
1509178116.21,58058,8.75,72722.8,-8.03,-9.27,-9.27,0,*5B